TimeCDT,TemperatureF,Dew PointF,Humidity,Sea Level PressureIn,VisibilityMPH,Wind Direction,Wind SpeedMPH,Gust SpeedMPH,PrecipitationIn,Events,Conditions,WindDirDegrees,DateUTC
12:55 AM,66.0,61.0,84,30.01,10.0,South,5.8,-,N/A,,Clear,170,2013-07-06 05:55:00
1:55 AM,64.0,60.1,87,30.01,9.0,SSE,5.8,-,N/A,,Clear,160,2013-07-06 06:55:00
2:55 AM,63.0,60.1,90,30.01,9.0,SSE,8.1,-,N/A,,Clear,160,2013-07-06 07:55:00
3:55 AM,63.0,60.1,90,30.01,8.0,South,4.6,-,N/A,,Clear,170,2013-07-06 08:55:00
4:55 AM,62.1,59.0,90,30.00,8.0,SSE,5.8,-,N/A,,Clear,160,2013-07-06 09:55:00
5:55 AM,62.1,60.1,93,30.01,6.0,SE,5.8,-,N/A,,Clear,140,2013-07-06 10:55:00
6:55 AM,64.0,62.1,93,30.02,6.0,South,3.5,-,N/A,,Clear,170,2013-07-06 11:55:00
7:55 AM,70.0,64.0,81,30.02,9.0,South,8.1,-,N/A,,Clear,180,2013-07-06 12:55:00
8:55 AM,75.9,64.9,69,30.02,10.0,South,6.9,-,N/A,,Clear,180,2013-07-06 13:55:00
9:55 AM,79.0,66.0,64,30.01,10.0,South,6.9,-,N/A,,Clear,170,2013-07-06 14:55:00
10:55 AM,82.0,66.0,58,30.00,10.0,South,8.1,-,N/A,,Clear,170,2013-07-06 15:55:00
11:55 AM,84.9,66.9,55,29.99,10.0,Variable,5.8,-,N/A,,Clear,0,2013-07-06 16:55:00
12:55 PM,86.0,66.0,51,29.98,10.0,SSW,5.8,-,N/A,,Clear,200,2013-07-06 17:55:00
1:55 PM,88.0,69.1,53,29.96,10.0,South,9.2,-,N/A,,Clear,180,2013-07-06 18:55:00
2:55 PM,89.1,69.1,52,29.95,10.0,South,11.5,16.1,N/A,,Clear,180,2013-07-06 19:55:00
3:55 PM,89.1,66.9,48,29.95,10.0,South,8.1,-,N/A,,Partly Cloudy,170,2013-07-06 20:55:00
4:55 PM,88.0,66.0,48,29.94,10.0,SSE,11.5,-,N/A,,Clear,160,2013-07-06 21:55:00
5:55 PM,86.0,66.0,51,29.93,10.0,SSE,6.9,-,N/A,,Clear,160,2013-07-06 22:55:00
6:55 PM,84.0,66.0,55,29.94,10.0,South,6.9,-,N/A,,Mostly Cloudy,170,2013-07-06 23:55:00
7:55 PM,79.0,66.9,66,29.94,8.0,SSE,5.8,-,N/A,,Scattered Clouds,160,2013-07-07 00:55:00
8:55 PM,78.1,66.0,66,29.95,9.0,SE,8.1,-,N/A,,Scattered Clouds,140,2013-07-07 01:55:00
9:55 PM,75.0,66.0,73,29.96,10.0,SE,8.1,-,N/A,,Clear,140,2013-07-07 02:55:00
10:55 PM,73.9,66.0,76,29.97,9.0,South,6.9,-,N/A,,Mostly Cloudy,170,2013-07-07 03:55:00
11:55 PM,70.0,64.9,84,29.98,8.0,South,5.8,-,N/A,,Clear,170,2013-07-07 04:55:00